This is the latest recevied weather packets stored in our database for station/object KD8FRE. If no packets are shown the sender has not sent any weather packets the latest 10 day(s).
| Time | Temp. | Humidity | Pressure | Rain* | Wind** | Luminosity | Snow |
|---|---|---|---|---|---|---|---|
| 1777638911 | 5.56° C | 82% | 1013.9 hPa | 0 mm | - | 55 W/m² | - |
| 1777638606 | 5.56° C | 82% | 1013.8 hPa | 0 mm | - | 45 W/m² | - |
| 1777638303 | 5.56° C | 82% | 1013.6 hPa | 0 mm | - | 33 W/m² | - |
| 1777637999 | 5.56° C | 82% | 1013.6 hPa | 0 mm | - | 26 W/m² | - |
| 1777637696 | 5.56° C | 81% | 1013.6 hPa | 0 mm | - | 24 W/m² | - |
| 1777637393 | 5.56° C | 82% | 1013.7 hPa | 0 mm | - | 23 W/m² | - |
| 1777637089 | 5.56° C | 82% | 1013.8 hPa | 0 mm | - | 23 W/m² | - |
| 1777636785 | 5.56° C | 82% | 1013.7 hPa | 0 mm | - | 22 W/m² | - |
| 1777636482 | 5.56° C | 82% | 1013.6 hPa | 0 mm | - | 22 W/m² | - |
| 1777636179 | 5.56° C | 83% | 1013.6 hPa | 0 mm | - | 21 W/m² | - |
| 1777635873 | 5.56° C | 83% | 1013.5 hPa | 0 mm | - | 19 W/m² | - |
| 1777635570 | 5.56° C | 84% | 1013.7 hPa | 0 mm | - | 18 W/m² | - |
| 1777635266 | 5° C | 83% | 1013.5 hPa | 0 mm | - | 15 W/m² | - |
| 1777634963 | 5° C | 84% | 1013.6 hPa | 0 mm | - | 14 W/m² | - |
| 1777634660 | 5° C | 83% | 1013.5 hPa | 0 mm | - | 13 W/m² | - |
| 1777634357 | 5° C | 84% | 1013.4 hPa | 0 mm | - | 14 W/m² | - |
| 1777634054 | 5° C | 83% | 1013.7 hPa | 0 mm | - | 11 W/m² | - |
| 1777633750 | 5° C | 83% | 1013.4 hPa | 0 mm | - | 9 W/m² | - |
| 1777633449 | 5° C | 84% | 1013.4 hPa | 0 mm | - | 8 W/m² | - |
| 1777633146 | 5° C | 83% | 1013.5 hPa | 0 mm | - | 8 W/m² | - |
| 1777632842 | 5° C | 83% | 1013.6 hPa | 0 mm | - | 5 W/m² | - |
| 1777632537 | 5° C | 83% | 1013.6 hPa | 0 mm | - | 4 W/m² | - |
| 1777632235 | 5° C | 83% | 1013.4 hPa | 0 mm | - | 4 W/m² | - |
| 1777631932 | 5° C | 82% | 1013.1 hPa | 0 mm | - | 3 W/m² | - |
| 1777631631 | 5° C | 82% | 1013.2 hPa | 0 mm | - | 2 W/m² | - |
* Rain latest hour (hover to see other rain measurements)
** Current wind speed in m/s (hover to see current wind gust speed)